[[{"header":{"parameterUnit":"m.s-1","parameterCategory":1,"la1":30.2991,"la2":30.254,"lo1":-89.0895,"lo2":-89.0444,"dy":0.0017,"dx":0.0017,"nx":28,"ny":28,"refTime":"2023-06-19T21:00:00:Z","depth":0,"parameterNumber":2,"parameterNumberName":"U-component_of_WINDS"},"data":[0,0,0,0,0,0,0,0,0,0,0,0,0,0,0,0,0,0,0,0,0,0,0,0,0,0,0,0,0,0,0,0,0,0,0,0,0,0,0,0,0,0,0,0,0,0,0,0,0,0,0,0,0,0,0,0,0,0,2.9061,2.906,0,2.9014,2.9014,2.9013,2.8858,2.8854,2.8851,2.8848,2.8805,2.8807,2.8809,0,0,0,0,0,0,0,0,0,0,0,0,0,2.902,2.9022,2.9061,2.906,2.906,2.9014,2.9014,2.9013,2.8859,2.8854,2.885,2.8846,2.8804,2.8806,2.8809,0,0,0,0,0,0,0,0,0,0,0,0,0,2.9012,2.9022,2.9061,2.8977,2.8969,2.9014,2.9014,2.9013,2.8859,2.8854,2.8849,2.8844,2.8803,2.8806,2.8809,2.8934,0,0,2.8819,2.882,0,0,0,0,0,0,0,0,2.9013,2.9014,2.899,2.8983,2.8974,2.8936,2.8983,2.8986,2.8861,2.8901,2.8848,2.8842,2.8853,2.8852,2.8855,2.8931,2.893,2.8819,2.8821,2.8822,2.8823,0,0,0,0,0,0,0,2.9014,2.9015,2.9042,2.899,2.898,2.8943,2.8936,2.8983,2.8907,2.8897,2.8886,2.8882,2.8848,2.8852,2.8852,2.8929,2.8819,2.8822,2.8824,2.8825,2.9107,2.9112,0,0,0,0,0,0,2.9026,2.9017,2.9044,2.9041,2.8981,2.8948,2.894,2.8954,2.8906,2.8894,2.8887,2.8875,2.8849,2.8849,2.885,2.8993,2.8822,2.8825,2.8827,2.9101,2.9108,2.9114,0,0,0,0,0,0,2.9025,2.9029,2.9046,2.9026,2.9025,2.8954,2.8971,2.8956,2.896,2.8898,2.8884,2.8905,2.8845,2.8846,2.8914,2.899,2.8827,2.883,2.9095,2.9103,2.9111,2.9281,0,0,0,0,0,0,2.9025,2.903,2.9076,2.9028,2.9027,2.9109,2.8975,2.8959,2.8965,2.895,2.8911,2.89,2.8841,2.891,2.8917,2.8991,2.8832,2.9088,2.9099,2.9108,2.9268,2.9294,2.9316,0,0,0,0,0,2.9024,2.9126,2.9079,2.9083,2.9082,2.9114,2.9113,2.9042,2.8972,2.9018,2.8978,2.8901,2.898,2.8918,2.8925,2.9001,2.9083,2.9095,2.9108,2.9257,2.9289,2.9315,0,0,0,0,0,0,2.9186,2.9118,2.9065,2.9154,2.9141,2.9088,2.9143,2.9077,2.9084,2.907,2.8982,2.8975,2.9056,2.9035,2.8967,2.912,2.9019,2.9033,2.913,2.916,2.9183,2.9187,2.8835,0,0,0,0,0,2.9232,2.9262,2.9202,2.9287,2.9283,2.9215,2.9226,2.9172,2.9155,2.9149,2.9114,2.9102,2.9124,2.9141,2.9157,2.9264,2.9254,2.932,2.9344,2.9364,2.9378,2.9434,2.9463,2.9155,2.9155,2.9155,0,0,2.9328,2.9294,2.9319,2.9319,2.9302,2.9337,2.9211,2.9253,2.9279,2.9156,2.9218,2.9193,2.9173,2.9262,2.9299,2.9247,2.9461,2.938,2.9396,2.9399,2.945,2.9479,2.9505,2.9164,2.9162,2.9161,0,0,2.952,2.9497,2.9565,2.9551,2.9527,2.9481,2.9498,2.9455,2.9433,2.9493,2.9402,2.9432,2.9471,2.9462,2.9462,2.9652,2.9582,2.966,2.9786,2.9841,2.9866,2.9887,2.9956,2.9981,2.9674,2.9674,2.9675,0,2.9642,2.969,2.961,2.9658,2.9661,2.955,2.962,2.961,2.9594,2.96,2.9541,2.9589,2.9568,2.9653,2.9699,2.9703,2.9721,2.9664,2.9868,2.9889,2.9907,2.9972,2.9998,2.9684,2.9683,2.9682,2.9681,0,2.9842,2.9877,2.9935,2.9921,2.993,2.999,2.992,2.994,2.9885,2.9847,2.9911,2.9882,2.9891,2.9907,2.9855,2.9986,2.9954,2.9884,2.9781,2.9948,3.0007,3.0031,2.9698,2.9694,2.9691,2.9689,0,0,3.0135,3.0075,3.0099,3.0091,3.0057,3.0083,3.0138,3.0145,3.0165,3.0157,3.0202,3.0238,3.0173,3.0174,3.0119,3.0168,3.0322,3.0091,3.009,3.0136,3.0466,3.052,3.055,3.0275,3.028,3.0283,3.0468,0,3.0318,3.0406,3.0337,3.0439,3.0471,3.0366,3.0414,3.0399,3.0365,3.0388,3.035,3.0377,3.0288,3.0288,3.0332,3.0294,3.0388,3.028,3.0318,3.032,3.0327,3.0581,3.0638,3.0814,3.0491,3.0495,3.0497,0,3.0543,3.0545,3.0651,3.061,3.0621,3.0665,3.0667,3.069,3.0672,3.0643,3.0645,3.0577,3.063,3.0529,3.0601,3.0529,3.0541,3.0525,3.053,3.0531,3.042,3.0591,3.0868,3.0895,3.0533,3.053,3.0528,0,3.0748,3.0777,3.0843,3.084,3.0795,3.0828,3.0811,3.0787,3.0797,3.08,3.0805,3.0815,3.082,3.083,3.0768,3.0699,3.0849,3.0742,3.0828,3.083,3.0865,3.0864,3.1149,3.0871,3.0871,3.087,3.087,0,3.096,3.1029,3.0935,3.0976,3.1051,3.097,3.1047,3.1019,3.0999,3.1034,3.0945,3.098,3.0895,3.0922,3.0874,3.0942,3.0945,3.0925,3.0912,3.0933,3.0936,3.094,3.0927,3.0877,3.0876,3.0874,3.0873,0,3.1202,3.1141,3.1207,3.1158,3.1148,3.1205,3.1164,3.1201,3.116,3.1206,3.1212,3.115,3.1177,3.1116,3.1135,3.1102,3.1199,3.1166,3.1206,3.1196,3.1286,3.1279,3.1585,3.1622,3.132,3.1323,3.1325,0,3.1342,3.1392,3.1349,3.1365,3.1352,3.138,3.1389,3.1313,3.1327,3.131,3.135,3.1369,3.1381,3.143,3.1387,3.1402,3.1369,3.1475,3.137,3.1391,3.1372,3.137,3.1375,3.1497,3.1501,3.1504,3.1506,0,3.1597,3.1565,3.158,3.1587,3.16,3.1602,3.1597,3.1616,3.1534,3.1555,3.1581,3.159,3.1609,3.1631,3.1635,3.1619,3.1551,3.1539,3.156,3.1584,3.1605,3.1596,3.1265,3.1533,3.153,3.1528,3.1527,3.1526,3.1792,3.1832,3.1808,3.183,3.1818,3.1816,3.1848,3.1812,3.1832,3.184,3.1794,3.1832,3.1813,3.1812,3.1803,3.1832,3.1784,3.1814,3.1822,3.1831,3.1846,3.16,3.1832,3.1832,3.1831,3.183,3.1829,0,3.2044,3.2023,3.2043,3.2039,3.2057,3.1988,3.198,3.2,3.2033,3.2021,3.2034,3.2065,3.2086,3.2045,3.2059,3.209,3.2059,3.2097,3.2094,3.2092,3.1887,3.1868,3.2122,3.2121,3.2121,3.2121,3.2121,3.2121,3.2177,3.2241,3.2207,3.2266,3.2244,3.2279,3.228,3.2278,3.2268,3.2307,3.2323,3.2295,3.2272,3.2284,3.2301,3.2288,3.2298,3.2347,3.2324,3.2134,3.2106,3.2079,3.206,3.235,3.235,3.2526,3.2528,3.2529]},{"header":{"parameterUnit":"m.s-1","parameterCategory":1,"la1":30.2991,"la2":30.254,"lo1":-89.0895,"lo2":-89.0444,"dy":0.0017,"dx":0.0017,"nx":28,"ny":28,"refTime":"2023-06-19T21:00:00:Z","depth":0,"parameterNumber":3,"parameterNumberName":"V-component_of_WINDS"},"data":[0,0,0,0,0,0,0,0,0,0,0,0,0,0,0,0,0,0,0,0,0,0,0,0,0,0,0,0,0,0,0,0,0,0,0,0,0,0,0,0,0,0,0,0,0,0,0,0,0,0,0,0,0,0,0,0,0,0,-0.6247,-0.6248,0,-0.6298,-0.6299,-0.63,-0.6331,-0.6331,-0.6331,-0.6331,-0.6382,-0.6383,-0.6385,0,0,0,0,0,0,0,0,0,0,0,0,0,-0.6175,-0.6177,-0.6247,-0.6248,-0.6249,-0.6298,-0.6299,-0.63,-0.6331,-0.6331,-0.6331,-0.6331,-0.6382,-0.6383,-0.6385,0,0,0,0,0,0,0,0,0,0,0,0,0,-0.6215,-0.6177,-0.6247,-0.627,-0.6273,-0.6298,-0.6299,-0.63,-0.6331,-0.6331,-0.6331,-0.6331,-0.6381,-0.6383,-0.6385,-0.6392,0,0,-0.639,-0.6391,0,0,0,0,0,0,0,0,-0.6212,-0.6217,-0.6266,-0.6268,-0.6271,-0.6308,-0.6293,-0.6331,-0.633,-0.6308,-0.6331,-0.6331,-0.6357,-0.6361,-0.637,-0.6394,-0.6396,-0.6391,-0.6392,-0.6393,-0.6393,0,0,0,0,0,0,0,-0.621,-0.6215,-0.6267,-0.6267,-0.627,-0.6277,-0.6283,-0.63,-0.6331,-0.631,-0.6313,-0.6318,-0.6359,-0.6368,-0.6372,-0.6397,-0.6391,-0.6392,-0.6393,-0.6394,-0.6428,-0.6428,0,0,0,0,0,0,-0.6203,-0.6213,-0.6266,-0.6269,-0.6242,-0.6278,-0.6285,-0.6296,-0.6331,-0.6336,-0.6318,-0.632,-0.6365,-0.637,-0.6374,-0.6384,-0.6393,-0.6394,-0.6395,-0.6429,-0.6428,-0.6428,0,0,0,0,0,0,-0.6202,-0.6208,-0.6264,-0.6242,-0.6249,-0.6279,-0.6292,-0.6297,-0.6307,-0.6337,-0.6342,-0.6322,-0.6366,-0.6371,-0.6387,-0.6386,-0.6395,-0.6397,-0.6429,-0.6429,-0.6428,-0.6403,0,0,0,0,0,0,-0.6199,-0.6207,-0.621,-0.6241,-0.625,-0.6276,-0.6292,-0.6298,-0.631,-0.6312,-0.6342,-0.6347,-0.6366,-0.6384,-0.6389,-0.6388,-0.6398,-0.6429,-0.6429,-0.6428,-0.6404,-0.6402,-0.64,0,0,0,0,0,-0.6197,-0.6201,-0.621,-0.6216,-0.6255,-0.6276,-0.6281,-0.6303,-0.631,-0.6313,-0.6332,-0.6346,-0.6385,-0.6385,-0.6391,-0.6391,-0.6429,-0.6429,-0.6428,-0.6405,-0.6403,-0.64,0,0,0,0,0,0,-0.6168,-0.6205,-0.6216,-0.623,-0.625,-0.6281,-0.6286,-0.63,-0.6318,-0.6319,-0.6346,-0.6352,-0.6365,-0.638,-0.638,-0.6399,-0.6409,-0.6409,-0.6389,-0.6387,-0.6385,-0.6381,-0.64,0,0,0,0,0,-0.6163,-0.6178,-0.621,-0.6219,-0.6228,-0.6255,-0.6266,-0.6281,-0.6302,-0.6311,-0.6331,-0.6351,-0.6368,-0.6378,-0.6395,-0.6407,-0.6414,-0.641,-0.6408,-0.6406,-0.6406,-0.6413,-0.6411,-0.6427,-0.6427,-0.6427,0,0,-0.6153,-0.6176,-0.6183,-0.6214,-0.6231,-0.6245,-0.6262,-0.6277,-0.6288,-0.6313,-0.6329,-0.6345,-0.6369,-0.6382,-0.6389,-0.6395,-0.6403,-0.6405,-0.6404,-0.6405,-0.6412,-0.6411,-0.6409,-0.6427,-0.6427,-0.6427,0,0,-0.6143,-0.6161,-0.6171,-0.6188,-0.6214,-0.6232,-0.6234,-0.6264,-0.6276,-0.6293,-0.6312,-0.6325,-0.6354,-0.637,-0.6382,-0.6378,-0.6392,-0.6383,-0.6372,-0.6379,-0.6377,-0.6376,-0.6375,-0.6374,-0.6383,-0.6383,-0.6383,0,-0.6127,-0.615,-0.6174,-0.6188,-0.6201,-0.6225,-0.6235,-0.625,-0.628,-0.6288,-0.6294,-0.633,-0.6348,-0.6366,-0.6365,-0.6374,-0.6377,-0.6379,-0.6376,-0.6375,-0.6374,-0.6373,-0.6372,-0.6382,-0.6382,-0.6382,-0.6382,0,-0.613,-0.6145,-0.615,-0.6179,-0.6192,-0.6204,-0.6229,-0.624,-0.6254,-0.6272,-0.6288,-0.6311,-0.6333,-0.6338,-0.6352,-0.6358,-0.6361,-0.6371,-0.6381,-0.6371,-0.637,-0.637,-0.638,-0.638,-0.6381,-0.6381,0,0,-0.6101,-0.6144,-0.6145,-0.6159,-0.6189,-0.6202,-0.6214,-0.6236,-0.6245,-0.6265,-0.6276,-0.63,-0.6309,-0.6323,-0.6339,-0.6345,-0.634,-0.6354,-0.6355,-0.635,-0.6347,-0.6339,-0.6338,-0.6349,-0.6349,-0.6349,-0.6345,0,-0.6095,-0.6119,-0.6142,-0.6158,-0.6172,-0.6196,-0.6207,-0.6227,-0.6244,-0.6258,-0.6276,-0.6293,-0.6304,-0.6313,-0.632,-0.6339,-0.6339,-0.634,-0.6359,-0.636,-0.6352,-0.6337,-0.6329,-0.6324,-0.6345,-0.6345,-0.6345,0,-0.6091,-0.611,-0.6128,-0.6157,-0.6164,-0.6174,-0.6196,-0.621,-0.6232,-0.6244,-0.626,-0.6277,-0.6291,-0.63,-0.632,-0.6319,-0.6329,-0.6339,-0.634,-0.6342,-0.6351,-0.6339,-0.6323,-0.6321,-0.6345,-0.6345,-0.6345,0,-0.6068,-0.6098,-0.6113,-0.6124,-0.6159,-0.6165,-0.6179,-0.6203,-0.6215,-0.6234,-0.6242,-0.6262,-0.6273,-0.6289,-0.6311,-0.6315,-0.6328,-0.6339,-0.6338,-0.6337,-0.6339,-0.6338,-0.6323,-0.6346,-0.6346,-0.6346,-0.6346,0,-0.6058,-0.6068,-0.6103,-0.6112,-0.6124,-0.6149,-0.616,-0.6177,-0.6197,-0.621,-0.6231,-0.6242,-0.6271,-0.6285,-0.6303,-0.6316,-0.6321,-0.6331,-0.6335,-0.6329,-0.6327,-0.6335,-0.6335,-0.6346,-0.6346,-0.6346,-0.6346,0,-0.6034,-0.6058,-0.6075,-0.6107,-0.6116,-0.6123,-0.615,-0.6159,-0.6177,-0.6193,-0.6198,-0.6226,-0.6244,-0.6268,-0.6293,-0.6305,-0.6316,-0.6323,-0.6308,-0.6311,-0.6308,-0.6308,-0.6297,-0.6297,-0.632,-0.6319,-0.6319,0,-0.6026,-0.6034,-0.6067,-0.6077,-0.6091,-0.6107,-0.6119,-0.6145,-0.6157,-0.6184,-0.619,-0.621,-0.6227,-0.6255,-0.6277,-0.6297,-0.6304,-0.6299,-0.6307,-0.63,-0.6304,-0.6303,-0.6303,-0.6297,-0.6296,-0.6296,-0.6296,0,-0.6008,-0.602,-0.6037,-0.6059,-0.6073,-0.6091,-0.611,-0.6117,-0.6147,-0.6159,-0.6178,-0.6192,-0.6218,-0.6237,-0.626,-0.6275,-0.629,-0.6293,-0.6294,-0.6287,-0.6278,-0.6282,-0.6302,-0.6293,-0.6294,-0.6294,-0.6294,-0.6294,-0.5991,-0.6,-0.6024,-0.6043,-0.606,-0.6078,-0.6088,-0.6108,-0.6124,-0.6148,-0.6162,-0.6181,-0.6204,-0.6236,-0.625,-0.6264,-0.627,-0.6271,-0.6272,-0.6271,-0.6269,-0.6276,-0.6269,-0.6269,-0.6269,-0.6269,-0.6269,0,-0.5975,-0.5992,-0.6009,-0.6035,-0.605,-0.6064,-0.6086,-0.6097,-0.6113,-0.6133,-0.615,-0.6172,-0.6191,-0.6215,-0.6236,-0.6243,-0.625,-0.6247,-0.6246,-0.625,-0.6263,-0.626,-0.6241,-0.6241,-0.6241,-0.6241,-0.6241,-0.6241,-0.5967,-0.5982,-0.5997,-0.6021,-0.6038,-0.6056,-0.6068,-0.6084,-0.61,-0.6124,-0.614,-0.6156,-0.6178,-0.62,-0.6218,-0.6225,-0.6231,-0.6226,-0.6235,-0.6246,-0.6249,-0.6251,-0.6248,-0.6227,-0.6227,-0.622,-0.622,-0.622]}]]